Glencoe, MN

5:29 AM CST on December 13, 2019 (GMT -0600)
Glencoe Municipal

Weather History for KGYL - October, 2019

Change the Weather History Date:

Sunday, October 6, 2019

  Actual Average (KHCD) Record (KHCD)
Temperature  
Mean Temperature 55 °F -  
Max Temperature 64 °F 63 °F 87 °F (2007)
Min Temperature 46 °F 39 °F 1 °F (2004)
Degree Days  
Heating Degree Days 10    
Growing Degree Days 5 (Base 50)    
Moisture  
Dew Point 41 °F    
Average Humidity 62    
Maximum Humidity 93    
Minimum Humidity 39    
Precipitation  
Precipitation 0.00 in - - ()
Sea Level Pressure  
Sea Level Pressure 29.96 in    
Wind  
Wind Speed 8 mph (WSW)    
Max Wind Speed 18 mph    
Max Gust Speed 30 mph    
Visibility 10 miles    
Events      
Averages and records for this station are not official NWS values.
T = Trace of Precipitation, MM = Missing Value Source: NWS Daily Summary

Daily Weather History Graph

Daily Weather History Graph

Search for Another Location

Airport or City:

Astronomy

Oct. 06, 2019 Rise Set
Actual Time 7:20 AM CDT 6:47 PM CDT
Civil Twilight 6:50 AM CDT 7:17 PM CDT
Nautical Twilight 6:17 AM CDT 7:50 PM CDT
Astronomical Twilight 5:42 AM CDT 8:25 PM CDT
Moon 3:46 PM CDT (10/6) No Moon Set
Length of Visible Light 12h 26m
Length of Day
11h 27m
First Quarter, 60% of the Moon is Illuminated
Oct 6
First Quarter
Oct 13
Full
Oct 21
Last Quarter
Oct 27
New
Nov 4
First Quarter

Hourly Weather History & Observations

Time (CDT) Temp. Windchill Dew Point Humidity Pressure Visibility Wind Dir Wind Speed Gust Speed Precip Events Conditions
12:59 AM 48.2 °F - 46.4 °F 93% 29.86 in 10.0 mi SW 4.6 mph - N/A   Clear
1:59 AM 48.2 °F - 44.6 °F 87% 29.87 in 10.0 mi WSW 8.1 mph - N/A   Clear
2:59 AM 48.2 °F - 44.6 °F 87% 29.88 in 10.0 mi SW 6.9 mph - N/A   Clear
3:59 AM 48.2 °F - 42.8 °F 82% 29.89 in 10.0 mi SW 6.9 mph - N/A   Clear
4:59 AM 48.2 °F - 41.0 °F 76% 29.90 in 10.0 mi SW 8.1 mph - N/A   Clear
5:59 AM 46.4 °F 42.4 °F 41.0 °F 81% 29.91 in 10.0 mi WSW 8.1 mph - N/A   Clear
6:59 AM 46.4 °F 42.4 °F 41.0 °F 81% 29.92 in 10.0 mi WSW 8.1 mph - N/A   Clear
7:59 AM 46.4 °F 42.4 °F 41.0 °F 81% 29.94 in 10.0 mi WSW 8.1 mph - N/A   Clear
8:59 AM 50.0 °F - 41.0 °F 71% 29.95 in 10.0 mi WSW 6.9 mph - N/A   Clear
9:59 AM 53.6 °F - 41.0 °F 62% 29.96 in 10.0 mi WSW 9.2 mph 16.1 mph N/A   Clear
10:59 AM 57.2 °F - 41.0 °F 55% 29.98 in 10.0 mi WSW 9.2 mph 18.4 mph N/A   Clear
11:59 AM 60.8 °F - 41.0 °F 48% 29.99 in 10.0 mi WSW 12.7 mph 23.0 mph N/A   Clear
12:59 PM 62.6 °F - 39.2 °F 42% 29.99 in 10.0 mi West 18.4 mph 29.9 mph N/A   Clear
1:59 PM 62.6 °F - 39.2 °F 42% 29.98 in 10.0 mi West 17.3 mph 25.3 mph N/A   Scattered Clouds
2:59 PM 64.4 °F - 39.2 °F 40% 29.98 in 10.0 mi West 16.1 mph 29.9 mph N/A   Mostly Cloudy
3:59 PM 62.6 °F - 39.2 °F 42% 29.98 in 10.0 mi West 15.0 mph 25.3 mph N/A   Scattered Clouds
4:59 PM 62.6 °F - 39.2 °F 42% 29.98 in 10.0 mi West 13.8 mph 20.7 mph N/A   Clear
5:59 PM 62.6 °F - 37.4 °F 39% 29.99 in 10.0 mi West 10.4 mph 19.6 mph N/A   Mostly Cloudy
6:59 PM 59.0 °F - 39.2 °F 48% 30.00 in 10.0 mi West 9.2 mph - N/A   Scattered Clouds
7:59 PM 57.2 °F - 41.0 °F 55% 30.03 in 10.0 mi WSW 5.8 mph - N/A   Mostly Cloudy
8:59 PM 55.4 °F - 41.0 °F 58% 30.03 in 10.0 mi WSW 4.6 mph - N/A   Overcast
9:59 PM 55.4 °F - 41.0 °F 58% 30.03 in 10.0 mi SW 4.6 mph - N/A   Overcast
10:59 PM 55.4 °F - 41.0 °F 58% 30.04 in 10.0 mi SW 6.9 mph - N/A   Overcast
11:59 PM 55.4 °F - 41.0 °F 58% 30.05 in 10.0 mi WSW 6.9 mph - N/A   Mostly Cloudy